Find Starlink 31181

NORAD ID: 58746 Int'l Des: 2024-005 Owner: SPXS Country: US Constellation: starlink operational
LEOCIRCULAR

实时位置

正在加载3D地球...

关于 Starlink 31181

正在加载描述...

即将过境

Passes for default location (London). Set your location on the main map for personalized predictions.

高度历史

Loading altitude history...

两行轨道根数

1 58746U 24005U 26122.38229860 -.00000423 00000-0 -58436-5 0 9994
2 58746 43.0015 124.2976 0000906 299.5181 60.5580 15.27572617130490
Epoch: May 2, 2026 • Age: 8 hours

当前状态

高度 486.7 km
速度 7.63 km/s
星下点 43.13°N, 87.92°E
发射日期 Jan 7, 2024
运行时间 2.3 years
类型 internet

技术详情

分类 Payload
质量 730.00 kg
干质量 700.00 kg
总质量 730.00 kg
长度 0.30 m
直径 4.10 m
跨度 29.00 m
形状 Box + pan
制造商 SPXS
平台类型 Starlink V2M
阶段状态 In Orbit
所有者/国家 SPXS/US

Most Searched